Location: Seattle
(47.6064°N, 122.3308°W)
Time: 20:44:13
(UTC-07:00)

Courier 1B - Visible Passes

Search period start: 28 July 2021 00:00
Search period end: 07 August 2021 00:00
Orbit: 962 x 1209 km, 28.3° (Epoch: 28 July)

Date Brightness Start Highest point End Pass type
(mag) Time Alt. Az. Time Alt. Az. Time Alt. Az.
28 Jul 9.2 22:22:23 10° SSW 22:26:28 15° S 22:27:34 15° SSE visible
29 Jul 9.4 21:29:06 10° SSW 21:32:55 14° S 21:36:40 10° SE visible
29 Jul 9.4 23:21:31 10° SW 23:24:04 15° SSW 23:24:04 15° SSW visible
30 Jul 9.2 22:27:44 10° SW 22:32:13 17° S 22:33:35 16° SSE visible
31 Jul 9.4 21:34:06 10° SSW 21:38:39 17° S 21:43:02 10° SE visible
31 Jul 9.5 23:27:42 10° SW 23:29:55 14° SSW 23:29:55 14° SSW visible
01 Aug 9.3 22:33:36 10° SW 22:37:56 16° S 22:39:18 15° S visible
02 Aug 9.4 21:39:42 10° SW 21:44:22 17° S 21:48:40 11° SSE visible
02 Aug 9.7 23:34:50 10° SW 23:35:33 11° SSW 23:35:33 11° SSW visible
03 Aug 9.5 22:40:03 10° SW 22:43:38 14° SSW 22:44:53 13° S visible
04 Aug 9.5 21:45:48 10° SW 21:50:05 16° S 21:54:13 10° SSE visible
05 Aug 9.7 22:48:19 10° SSW 22:49:16 10° SSW 22:50:12 10° SSW visible
06 Aug 9.7 21:52:40 10° SW 21:55:45 13° SSW 21:58:48 10° S visible
